Location: Cheyres
(46.8153°N, 6.7877°E)
Time: 13:59:44
(UTC+00:00)

Iridium 4 Rocket - Pass Details

Date: 11 May 2021
Orbit: 583 x 906 km, 86.9° (Epoch: 19 June)

Event Time Altitude Azimuth Distance (km) Brightness Sun altitude
Exits shadow 21:30:57 21° 200° (SSW) 1,883 5.1 -19.8°
Maximum altitude 21:34:53 62° 276° (W) 1,010 4.2 -20.1°
Drops below altitude 10° 21:40:46 10° 357° (N) 2,600 7.2 -20.6°
Sets 21:43:17 0° 1° (N) 3,540 8.0 -20.8°
